TimeCST,TemperatureF,Dew PointF,Humidity,Sea Level PressureIn,VisibilityMPH,Wind Direction,Wind SpeedMPH,Gust SpeedMPH,PrecipitationIn,Events,Conditions,WindDirDegrees,DateUTC
12:54 AM,69.1,64.0,84,29.88,9.0,South,23.0,33.4,0.01,Rain,Light Rain,190,2011-11-09 06:54:00
1:20 AM,62.6,57.2,82,29.91,5.0,SW,13.8,27.6,0.05,Rain,Light Rain,230,2011-11-09 07:20:00
1:54 AM,63.0,60.1,90,29.91,6.0,SW,11.5,18.4,0.07,Rain,Light Rain,220,2011-11-09 07:54:00
2:03 AM,62.6,60.8,94,29.91,6.0,SW,9.2,-,0.01,Rain,Light Rain,220,2011-11-09 08:03:00
2:54 AM,63.0,61.0,93,29.91,6.0,WSW,11.5,-,0.02,Rain,Light Rain,240,2011-11-09 08:54:00
3:42 AM,62.6,60.8,94,29.92,9.0,WSW,10.4,-,0.02,,Overcast,250,2011-11-09 09:42:00
3:52 AM,62.6,60.8,94,29.93,10.0,WSW,9.2,-,N/A,Rain,Light Rain,240,2011-11-09 09:52:00
3:54 AM,63.0,60.1,90,29.92,10.0,WSW,11.5,17.3,0.02,,Overcast,240,2011-11-09 09:54:00
4:54 AM,61.0,54.0,78,29.94,10.0,WSW,11.5,19.6,N/A,,Mostly Cloudy,250,2011-11-09 10:54:00
5:26 AM,57.2,53.6,88,29.97,10.0,West,13.8,20.7,N/A,,Mostly Cloudy,260,2011-11-09 11:26:00
5:32 AM,57.2,50.0,77,29.98,10.0,West,13.8,27.6,N/A,,Scattered Clouds,280,2011-11-09 11:32:00
5:54 AM,54.0,48.0,80,29.99,10.0,West,13.8,21.9,N/A,,Scattered Clouds,270,2011-11-09 11:54:00
6:27 AM,51.8,46.4,82,30.01,10.0,West,6.9,-,N/A,,Mostly Cloudy,270,2011-11-09 12:27:00
6:54 AM,53.1,46.9,80,30.02,10.0,West,11.5,-,N/A,,Mostly Cloudy,270,2011-11-09 12:54:00
7:37 AM,53.6,44.6,72,30.05,10.0,West,10.4,18.4,N/A,,Scattered Clouds,280,2011-11-09 13:37:00
7:54 AM,53.6,44.6,72,30.06,10.0,West,8.1,-,N/A,,Mostly Cloudy,280,2011-11-09 13:54:00
8:24 AM,53.6,46.4,77,30.07,10.0,West,10.4,-,N/A,,Overcast,270,2011-11-09 14:24:00
8:54 AM,55.0,45.0,69,30.08,10.0,West,12.7,-,N/A,,Overcast,270,2011-11-09 14:54:00
9:08 AM,55.4,44.6,67,30.08,10.0,WNW,12.7,18.4,N/A,,Overcast,300,2011-11-09 15:08:00
9:25 AM,55.4,44.6,67,30.09,10.0,West,15.0,20.7,N/A,,Overcast,280,2011-11-09 15:25:00
9:54 AM,55.0,44.1,67,30.10,10.0,WNW,13.8,21.9,N/A,,Mostly Cloudy,290,2011-11-09 15:54:00
10:03 AM,55.4,42.8,63,30.10,10.0,WNW,15.0,-,N/A,,Mostly Cloudy,300,2011-11-09 16:03:00
10:54 AM,55.9,43.0,62,30.12,10.0,NW,15.0,21.9,N/A,,Overcast,310,2011-11-09 16:54:00
11:54 AM,57.9,42.1,56,30.12,10.0,NW,18.4,25.3,N/A,,Mostly Cloudy,320,2011-11-09 17:54:00
12:54 PM,57.2,39.2,51,30.12,10.0,NW,18.4,26.5,N/A,,Partly Cloudy,310,2011-11-09 18:54:00
1:54 PM,57.0,39.0,51,30.12,10.0,NW,17.3,28.8,N/A,,Partly Cloudy,310,2011-11-09 19:54:00
2:54 PM,57.0,37.9,49,30.13,10.0,NW,12.7,27.6,N/A,,Partly Cloudy,320,2011-11-09 20:54:00
3:54 PM,55.0,37.0,51,30.14,10.0,NNW,17.3,-,N/A,,Scattered Clouds,340,2011-11-09 21:54:00
4:54 PM,53.6,35.6,51,30.17,10.0,NNW,17.3,24.2,N/A,,Partly Cloudy,330,2011-11-09 22:54:00
5:54 PM,50.0,37.0,61,30.20,10.0,NNW,6.9,-,N/A,,Clear,340,2011-11-09 23:54:00
6:54 PM,48.9,37.0,64,30.21,10.0,North,6.9,-,N/A,,Clear,350,2011-11-10 00:54:00
7:54 PM,48.2,37.4,66,30.22,10.0,North,5.8,-,N/A,,Clear,350,2011-11-10 01:54:00
8:54 PM,46.0,36.0,68,30.23,10.0,North,5.8,-,N/A,,Partly Cloudy,350,2011-11-10 02:54:00
9:54 PM,46.9,36.0,66,30.24,10.0,NNW,4.6,-,N/A,,Partly Cloudy,340,2011-11-10 03:54:00
10:54 PM,45.0,37.0,74,30.24,10.0,West,3.5,-,N/A,,Clear,280,2011-11-10 04:54:00
11:54 PM,42.1,37.0,82,30.24,10.0,WNW,3.5,-,N/A,,Partly Cloudy,290,2011-11-10 05:54:00